GW5248 Weather Reports


Display with metric or nautical units.
time (UTC)temp
F
wind
direction
speed
MPH
gust
MPH
rain 1hr
in
rain 24hr
in
rain mn
in
humidity
%
barometer
mb
20260504234719 68 254 6.0 9.0 0.00 0.00 0.00 55 1012.0
20260504234218 68 261 5.0 8.0 0.00 0.00 0.00 54 1012.0
20260504233718 69 258 5.0 7.0 0.00 0.00 0.00 54 1012.0
20260504233218 69 261 6.0 9.0 0.00 0.00 0.00 54 1012.0
20260504232718 69 259 8.0 11.0 0.00 0.00 0.00 53 1011.0
20260504232220 70 259 6.0 11.0 0.00 0.00 0.00 52 1011.0
20260504231720 71 257 7.0 11.0 0.00 0.00 0.00 50 1011.0
20260504231220 72 256 6.0 10.0 0.00 0.00 0.00 39 1011.0
20260504230718 73 269 6.0 10.0 0.00 0.00 0.00 38 1011.0
20260504230219 73 306 7.0 11.0 0.00 0.00 0.00 37 1011.0
20260504225718 73 316 8.0 11.0 0.00 0.00 0.00 37 1011.0
20260504225218 73 300 6.0 9.0 0.00 0.00 0.00 37 1011.0
20260504224718 73 285 4.0 7.0 0.00 0.00 0.00 37 1011.0
20260504224218 73 312 7.0 15.0 0.00 0.00 0.00 37 1011.0
20260504223718 74 317 5.0 11.0 0.00 0.00 0.00 38 1011.0
20260504223218 74 282 4.0 7.0 0.00 0.00 0.00 38 1011.0
20260504222718 74 301 6.0 11.0 0.00 0.00 0.00 38 1011.0
20260504222219 74 307 4.0 7.0 0.00 0.00 0.00 38 1011.0
20260504221719 74 321 5.0 11.0 0.00 0.00 0.00 38 1011.0
20260504221218 74 318 5.0 8.0 0.00 0.00 0.00 38 1011.0
20260504220718 74 317 6.0 12.0 0.00 0.00 0.00 38 1011.0
20260504220218 74 311 5.0 10.0 0.00 0.00 0.00 38 1011.0
20260504215720 74 17 2.0 4.0 0.00 0.00 0.00 38 1011.0
20260504215218 74 307 7.0 9.0 0.00 0.00 0.00 37 1011.0
20260504214718 74 333 6.0 10.0 0.00 0.00 0.00 37 1011.0
20260504214219 74 339 6.0 9.0 0.00 0.00 0.00 37 1012.0
20260504213718 75 352 4.0 8.0 0.00 0.00 0.00 37 1011.0
20260504213218 75 331 4.0 7.0 0.00 0.00 0.00 37 1012.0
20260504212718 74 323 6.0 8.0 0.00 0.00 0.00 37 1011.0
20260504212218 74 316 10.0 15.0 0.00 0.00 0.00 37 1011.0
20260504211718 74 310 7.0 10.0 0.00 0.00 0.00 37 1012.0
20260504211219 75 309 5.0 9.0 0.00 0.00 0.00 38 1011.0
20260504210719 75 308 7.0 10.0 0.00 0.00 0.00 37 1012.0
20260504210219 75 275 5.0 9.0 0.00 0.00 0.00 38 1011.0
20260504205718 75 312 6.0 8.0 0.00 0.00 0.00 38 1011.0
20260504205218 74 313 4.0 8.0 0.00 0.00 0.00 38 1012.0
20260504204718 75 315 5.0 9.0 0.00 0.00 0.00 38 1012.0
20260504204219 75 314 4.0 7.0 0.00 0.00 0.00 37 1012.0
20260504203718 75 341 4.0 9.0 0.00 0.00 0.00 37 1012.0
20260504203219 74 312 5.0 11.0 0.00 0.00 0.00 38 1012.0
20260504202719 74 343 7.0 13.0 0.00 0.00 0.00 37 1012.0
20260504202219 74 307 6.0 9.0 0.00 0.00 0.00 38 1012.0
20260504201718 74 302 5.0 10.0 0.00 0.00 0.00 38 1012.0
20260504201218 74 314 5.0 7.0 0.00 0.00 0.00 38 1012.0
20260504200718 74 318 4.0 11.0 0.00 0.00 0.00 38 1012.0
20260504200227 75 311 6.0 8.0 0.00 0.00 0.00 38 1012.0
20260504195718 75 323 5.0 9.0 0.00 0.00 0.00 37 1012.0
20260504195218 75 313 5.0 8.0 0.00 0.00 0.00 38 1012.0
20260504194718 74 282 7.0 9.0 0.00 0.00 0.00 39 1012.0
20260504194220 75 333 3.0 6.0 0.00 0.00 0.00 37 1012.0
20260504193719 74 297 5.0 13.0 0.00 0.00 0.00 39 1012.0
20260504193218 74 319 4.0 8.0 0.00 0.00 0.00 39 1012.0
20260504192719 74 357 8.0 10.0 0.00 0.00 0.00 38 1012.0
20260504192218 75 355 8.0 10.0 0.00 0.00 0.00 37 1012.0
20260504191720 74 340 7.0 10.0 0.00 0.00 0.00 36 1012.0
20260504191218 74 4 7.0 10.0 0.00 0.00 0.00 36 1012.0
20260504190718 74 326 3.0 5.0 0.00 0.00 0.00 38 1012.0
20260504190219 75 352 9.0 13.0 0.00 0.00 0.00 36 1012.0
20260504185721 74 325 6.0 10.0 0.00 0.00 0.00 37 1012.0
20260504185219 74 341 4.0 6.0 0.00 0.00 0.00 37 1013.0
20260504184718 74 306 5.0 9.0 0.00 0.00 0.00 38 1013.0
20260504184219 74 316 5.0 8.0 0.00 0.00 0.00 37 1013.0
20260504183719 74 346 5.0 9.0 0.00 0.00 0.00 36 1013.0
20260504183220 73 8 7.0 11.0 0.00 0.00 0.00 37 1013.0
20260504182718 73 309 5.0 7.0 0.00 0.00 0.00 38 1013.0
20260504182218 74 315 4.0 9.0 0.00 0.00 0.00 36 1013.0
20260504181718 74 23 8.0 10.0 0.00 0.00 0.00 35 1013.0
20260504181218 74 16 8.0 11.0 0.00 0.00 0.00 36 1013.0
20260504180718 73 345 5.0 9.0 0.00 0.00 0.00 38 1013.0
20260504180218 73 341 6.0 11.0 0.00 0.00 0.00 36 1013.0
20260504175718 73 354 7.0 11.0 0.00 0.00 0.00 36 1013.0
20260504175219 73 336 4.0 7.0 0.00 0.00 0.00 38 1013.0
20260504174718 73 342 6.0 10.0 0.00 0.00 0.00 38 1013.0
20260504174219 72 307 8.0 14.0 0.00 0.00 0.00 38 1013.0
20260504173721 72 333 2.0 5.0 0.00 0.00 0.00 39 1013.0
20260504173219 73 28 8.0 14.0 0.00 0.00 0.00 37 1013.0
20260504172719 72 356 9.0 11.0 0.00 0.00 0.00 37 1013.0
20260504172219 72 342 8.0 12.0 0.00 0.00 0.00 38 1013.0
20260504171720 72 310 8.0 12.0 0.00 0.00 0.00 40 1014.0
20260504171218 72 316 9.0 14.0 0.00 0.00 0.00 39 1014.0
20260504170719 73 326 5.0 10.0 0.00 0.00 0.00 38 1014.0
20260504170219 72 348 6.0 9.0 0.00 0.00 0.00 39 1014.0
20260504160218 70 338 4.0 7.0 0.00 0.00 0.00 40 1014.0
20260504150719 68 343 7.0 11.0 0.00 0.00 0.00 47 1015.0
20260504150219 67 338 4.0 6.0 0.00 0.00 0.00 48 1015.0
20260504141220 64 300 5.0 10.0 0.00 0.00 0.00 54 1015.0
20260504140720 64 314 8.0 12.0 0.00 0.00 0.00 55 1015.0
20260504140221 64 328 6.0 9.0 0.00 0.00 0.00 56 1015.0
20260504130719 60 308 8.0 13.0 0.00 0.00 0.00 65 1016.0
20260504130221 60 318 9.0 14.0 0.00 0.00 0.00 65 1016.0
20260504120218 55 251 7.0 9.0 0.00 0.00 0.00 72 1016.0
20260504110718 51 248 5.0 7.0 0.00 0.00 0.00 79 1017.0
20260504110219 51 254 6.0 7.0 0.00 0.00 0.00 79 1017.0
20260504100221 50 244 3.0 5.0 0.00 0.00 0.00 80 1016.0
20260504081719 49 285 3.0 4.0 0.00 0.00 0.00 77 1017.0
20260504081219 49 263 3.0 5.0 0.00 0.00 0.00 77 1017.0
20260504080718 49 257 5.0 8.0 0.00 0.00 0.00 77 1017.0
20260504080219 48 260 4.0 8.0 0.00 0.00 0.00 76 1017.0
20260504070218 48 258 7.0 10.0 0.00 0.00 0.00 68 1017.0
20260504060218 46 284 4.0 5.0 0.00 0.00 0.00 67 1017.0
20260504050718 45 264 2.0 4.0 0.00 0.00 0.00 68 1017.0
20260504050219 45 263 2.0 4.0 0.00 0.00 0.00 69 1017.0
20260504045718 45 249 2.0 4.0 0.00 0.00 0.00 68 1017.0
20260504045218 45 312 3.0 5.0 0.00 0.00 0.00 67 1017.0
20260504044719 44 311 2.0 4.0 0.00 0.00 0.00 70 1017.0
20260504044218 43 217 2.0 4.0 0.00 0.00 0.00 70 1016.0
20260504043718 43 220 2.0 2.0 0.00 0.00 0.00 70 1017.0
20260504043218 43 216 0.0 2.0 0.00 0.00 0.00 69 1017.0
20260504042718 42 255 1.0 2.0 0.00 0.00 0.00 70 1017.0
20260504042219 42 0 0.0 0.0 0.00 0.00 0.00 71 1016.0
20260504041719 43 259 1.0 2.0 0.00 0.00 0.00 70 1016.0
20260504041218 43 225 0.0 2.0 0.00 0.00 0.00 69 1016.0
20260504040720 44 218 1.0 2.0 0.00 0.00 0.00 67 1016.0
20260504040218 44 227 1.0 2.0 0.00 0.00 0.00 67 1016.0
20260504035719 44 118 0.0 2.0 0.00 0.00 0.00 67 1016.0
20260504035218 45 52 0.0 1.0 0.00 0.00 0.00 66 1016.0
20260504034718 46 53 2.0 3.0 0.00 0.00 0.00 64 1016.0
20260504034219 46 299 2.0 4.0 0.00 0.00 0.00 63 1016.0
20260504033718 46 150 0.0 2.0 0.00 0.00 0.00 63 1016.0
20260504033220 47 328 2.0 3.0 0.00 0.00 0.00 62 1016.0
20260504032718 47 322 2.0 4.0 0.00 0.00 0.00 59 1016.0
20260504032219 47 303 4.0 6.0 0.00 0.00 0.00 60 1016.0
20260504031718 47 301 1.0 3.0 0.00 0.00 0.00 61 1016.0
20260504031218 47 268 0.0 3.0 0.00 0.00 0.00 61 1016.0
20260504030718 47 288 0.0 2.0 0.00 0.00 0.00 59 1016.0
20260504030218 46 311 3.0 4.0 0.00 0.00 0.00 60 1016.0
20260504025719 45 309 2.0 6.0 0.00 0.00 0.00 64 1016.0
20260504025218 45 182 0.0 1.0 0.00 0.00 0.00 65 1016.0
20260504024719 45 234 0.0 2.0 0.00 0.00 0.00 65 1016.0
20260504024218 46 211 2.0 2.0 0.00 0.00 0.00 64 1016.0
20260504023718 47 223 0.0 2.0 0.00 0.00 0.00 62 1016.0
20260504023218 47 277 2.0 3.0 0.00 0.00 0.00 60 1016.0
20260504022718 47 292 2.0 5.0 0.00 0.00 0.00 60 1016.0
20260504022218 46 0 0.0 0.0 0.00 0.00 0.00 62 1016.0
20260504021718 47 321 0.0 0.0 0.00 0.00 0.00 61 1016.0
20260504021218 47 357 0.0 1.0 0.00 0.00 0.00 60 1016.0
20260504020718 48 314 0.0 2.0 0.00 0.00 0.00 59 1016.0
20260504020218 47 292 2.0 3.0 0.00 0.00 0.00 58 1016.0
20260504015719 46 310 1.0 4.0 0.00 0.00 0.00 61 1016.0
20260504015218 46 0 0.0 0.0 0.00 0.00 0.00 64 1016.0
20260504014719 47 13 1.0 2.0 0.00 0.00 0.00 62 1016.0
20260504014218 47 206 0.0 2.0 0.00 0.00 0.00 60 1016.0
20260504013718 47 249 1.0 3.0 0.00 0.00 0.00 60 1016.0
20260504013219 46 246 1.0 2.0 0.00 0.00 0.00 60 1016.0
20260504012718 46 272 0.0 0.0 0.00 0.00 0.00 62 1016.0
20260504012218 47 0 0.0 0.0 0.00 0.00 0.00 61 1016.0
20260504011718 47 0 0.0 0.0 0.00 0.00 0.00 60 1016.0
20260504011219 48 293 0.0 1.0 0.00 0.00 0.00 60 1015.0
20260504010718 49 255 1.0 2.0 0.00 0.00 0.00 58 1015.0
20260504010219 50 0 0.0 0.0 0.00 0.00 0.00 56 1015.0
20260504005718 51 261 0.0 1.0 0.00 0.00 0.00 55 1015.0
20260504005218 51 315 0.0 2.0 0.00 0.00 0.00 53 1015.0
20260504004719 50 273 2.0 2.0 0.00 0.00 0.00 52 1015.0
20260504004219 50 0 0.0 0.0 0.00 0.00 0.00 54 1015.0
20260504003718 51 40 0.0 1.0 0.00 0.00 0.00 51 1015.0
20260504003218 52 354 0.0 0.0 0.00 0.00 0.00 50 1015.0
20260504002718 53 344 0.0 0.0 0.00 0.00 0.00 49 1015.0
20260504002218 53 279 2.0 3.0 0.00 0.00 0.00 47 1015.0
20260504001718 54 293 2.0 3.0 0.00 0.00 0.00 47 1015.0
20260504001218 54 276 1.0 2.0 0.00 0.00 0.00 47 1015.0
20260504000721 54 299 0.0 2.0 0.00 0.00 0.00 47 1015.0
20260504000219 54 338 2.0 4.0 0.00 0.00 0.00 46 1015.0
20260503235718 55 341 1.0 2.0 0.00 0.00 0.00 45 1015.0
20260503235218 55 321 2.0 4.0 0.00 0.00 0.00 45 1015.0